User: anonymous   Login
Location: ??????
(55.8274°N, 37.9338°E)
Time: 22:37:49
(UTC+00:00)
Language:

Cosmos 1151 Rocket - Orbit

View from above orbital plane
View from above orbital plane
View from above satellite
View from above satellite

Ground track
Ground track

The orbit data is extracted from the following two-line orbital elements,

1 11672U 80005B   24170.54168465  .00000758  00000-0  76845-4 0  9997
2 11672  82.5143 183.3912 0017815  99.4540 260.8693 14.89444402382784
Epoch (UTC): 18 June 2024 13:00:01
Eccentricity: 0.0017815
inclination: 82.5143°
perigee height: 587 km
apogee height: 612 km
right ascension of ascending node: 183.3912°
argument of perigee: 99.4540°
revolutions per day: 14.89444402
mean anomaly at epoch: 260.8693°
orbit number at epoch: 38278

The dashed part of the orbit path shows where the satellite is in the earth's shadow,  

DLR